National Weather Service United States Department of Commerce


000
ASUS42 KCAE 160910
RWRCAE
REGIONAL WEATHER ROUNDUP
NATIONAL WEATHER SERVICE COLUMBIA SC
500 AM EDT SUN JUN 16 2019

NOTE: "FAIR" INDICATES FEW OR NO CLOUDS BELOW 12,000 FEET WITH NO
SIGNIFICANT WEATHER AND/OR OBSTRUCTIONS TO VISIBILITY.

NOT ALL STATIONS ARE QUALITY CONTROLLED BY THE NATIONAL
WEATHER SERVICE. USE DATA WITH CAUTION...ESPECIALLY
DEWPOINT OBSERVATIONS.

SCZ001>056-GAZ040-063>065-077-161000-
...UPSTATE SOUTH CAROLINA...

CITY SKY/WX TMP DP RH WIND PRES REMARKS
ANDERSON FAIR 67 59 75 SW5 30.06F
LIBERTY FAIR 65 64 95 SW3 30.06F
SPARTANBURG FAIR 64 55 72 CALM 30.06F
CLEMSON FAIR 67 59 75 CALM 30.08S
GREENVILLE FAIR 69 59 70 SW7 30.07F
GREENWOOD FAIR 66 63 90 SW6 30.07F
GREER FAIR 66 57 72 SW6 30.07F
ROCK HILL FAIR 62 57 83 CALM 30.06S
CHESTER FAIR 64 59 82 S5 30.07S
LAURENS FAIR 66 63 88 SW3 30.06F


...CENTRAL SOUTH CAROLINA...

CITY SKY/WX TMP DP RH WIND PRES REMARKS
COLUMBIA APT FAIR 66 62 87 CALM 30.05S
COLUMBIA OWENS FAIR 65 62 90 CALM 30.06F
MCENTIRE ANGB FAIR 62 62 100 CALM 30.06S FOG
ORANGEBURG FAIR 65 63 93 CALM 30.06S
SUMTER SHAW FAIR 68 66 93 CALM 30.05S
NEWBERRY FAIR 63 63 100 CALM 30.09S
AIKEN FAIR 68 68 100 S3 30.09S
BARNWELL PTSUNNY 64 63 94 CALM 30.06S
MANNING FAIR 63 63 100 CALM 30.06S
CAMDEN FAIR 64 63 94 CALM 30.07S
LANCASTER FAIR 64 64 100 CALM 30.07R
WINNSBORO FAIR 64 63 94 S3 30.06S


...EASTERN AND COASTAL SOUTH CAROLINA...

CITY SKY/WX TMP DP RH WIND PRES REMARKS
MYRTLE BEACH MOCLDY 77 72 84 S9 30.06S
N MYRTLE BCH MOCLDY 77 71 82 S7 30.05S
CONWAY FAIR 66 64 94 CALM 30.06S
MARION FAIR 64 64 100 CALM 30.06S
HARTSVILLE FAIR 61 61 100 CALM 30.05F
FLORENCE FOG 68 65 90 CALM 30.06S VSB 1/4
DARLINGTON FAIR 67 66 97 S3 30.06F FOG
CHARLESTON APT FAIR 71 69 93 CALM 30.04S
MOUNT PLEASANT FAIR 70 70 100 CALM 30.03F
WALTERBORO FOG 63 63 100 CALM 30.06S VSB 1
BEAUFORT FAIR 72 71 97 CALM 30.04S
HILTON HEAD FAIR 75 73 94 CALM 30.04S


...EASTERN GEORGIA...

CITY SKY/WX TMP DP RH WIND PRES REMARKS
AUGUSTA BUSH F FAIR 63 63 100 CALM 30.05S FOG
AUGUSTA DANIEL FAIR 71 66 84 CALM 30.06F
THOMSON FAIR 66 65 96 CALM 30.06S
CLAXTON FAIR 66 65 97 CALM 30.05S
SYLVANIA FAIR 69 68 96 CALM 30.06S
STATESBORO FAIR 66 64 94 CALM 30.05S
SAVANNAH FAIR 71 70 96 CALM 30.04F


...SOUTHERN NORTH CAROLINA...

CITY SKY/WX TMP DP RH WIND PRES REMARKS
CHARLOTTE FAIR 68 61 78 SW6 30.06S
MONROE FAIR 64 60 87 SW6 30.05F
ASHEVILLE FAIR 63 57 81 S6 30.10F

$$